Location: Biharia
(46.4333°N, 22.8000°E)
Time: 00:36:36
(UTC+00:00)

Cosmos 371 Rocket - Pass Details

Date: 16 October 2021
Orbit: 684 x 699 km, 74.0° (Epoch: 02 December)

Event Time Altitude Azimuth Distance (km) Brightness Sun altitude
Rises 17:44:31 0° 190° (S) 3,050 6.6 -22.1°
Reaches altitude 10° 17:46:50 10° 186° (S) 2,140 5.8 -22.5°
Enters shadow 17:50:02 40° 168° (SSE) 1,028 3.9 -23.0°
